[[{"header":{"parameterUnit":"m.s-1","parameterCategory":1,"la1":30.2991,"la2":30.254,"lo1":-89.0895,"lo2":-89.0444,"dy":0.0017,"dx":0.0017,"nx":28,"ny":28,"refTime":"2023-10-12T09:00:00:Z","depth":0,"parameterNumber":2,"parameterNumberName":"U-component_of_WINDS"},"data":[0,0,0,0,0,0,0,0,0,0,0,0,0,0,0,0,0,0,0,0,0,0,0,0,0,0,0,0,0,0,0,0,0,0,0,0,0,0,0,0,0,0,0,0,0,0,0,0,0,0,0,0,0,0,0,0,0,0,2.5895,2.5895,0,2.5902,2.5902,2.5902,2.5812,2.581,2.5807,2.5805,2.5813,2.5815,2.5817,0,0,0,0,0,0,0,0,0,0,0,0,0,2.5804,2.5807,2.5895,2.5895,2.5896,2.5902,2.5902,2.5902,2.5813,2.581,2.5807,2.5804,2.5812,2.5815,2.5818,0,0,0,0,0,0,0,0,0,0,0,0,0,2.5831,2.5807,2.5895,2.5852,2.5848,2.5902,2.5902,2.5902,2.5813,2.581,2.5806,2.5803,2.5811,2.5814,2.5818,2.5914,0,0,2.5829,2.5831,0,0,0,0,0,0,0,0,2.5829,2.5834,2.5858,2.5855,2.5851,2.5852,2.5872,2.5906,2.5814,2.5827,2.5805,2.5801,2.5829,2.5831,2.584,2.5915,2.5915,2.583,2.5832,2.5834,2.5835,0,0,0,0,0,0,0,2.5828,2.5833,2.5898,2.5859,2.5854,2.5831,2.5831,2.5878,2.5848,2.5825,2.5819,2.5821,2.5826,2.5837,2.584,2.5915,2.583,2.5833,2.5835,2.5837,2.6064,2.6067,0,0,0,0,0,0,2.5832,2.5832,2.5898,2.5898,2.5831,2.5836,2.5836,2.5856,2.5847,2.5843,2.5824,2.5816,2.5832,2.5835,2.584,2.5948,2.5833,2.5837,2.5839,2.606,2.6064,2.6069,0,0,0,0,0,0,2.583,2.5838,2.5897,2.5863,2.5869,2.5841,2.5865,2.5858,2.5868,2.5846,2.584,2.584,2.5829,2.5834,2.5895,2.5947,2.5839,2.5842,2.6055,2.6061,2.6066,2.6168,0,0,0,0,0,0,2.5828,2.5838,2.5875,2.5865,2.5871,2.5954,2.5868,2.586,2.5875,2.5865,2.586,2.5856,2.5827,2.589,2.5899,2.595,2.5845,2.605,2.6058,2.6065,2.616,2.6176,2.619,0,0,0,0,0,2.5825,2.5905,2.5878,2.5886,2.5917,2.5957,2.5961,2.5925,2.5879,2.5915,2.5901,2.5856,2.594,2.5897,2.5906,2.5959,2.6047,2.6056,2.6064,2.6153,2.6173,2.619,0,0,0,0,0,0,2.5924,2.5903,2.5872,2.5952,2.5957,2.5942,2.5986,2.5949,2.5967,2.5958,2.5914,2.5913,2.598,2.5976,2.5928,2.605,2.5985,2.5996,2.605,2.6069,2.6084,2.6082,2.5848,0,0,0,0,0,2.5954,2.5989,2.5969,2.604,2.6044,2.6015,2.6031,2.6004,2.6007,2.6009,2.5999,2.6004,2.6031,2.605,2.6074,2.6159,2.6155,2.62,2.6215,2.6228,2.6237,2.6278,2.6296,2.6097,2.6097,2.6096,0,0,2.6019,2.6012,2.6036,2.606,2.606,2.6096,2.6018,2.606,2.6085,2.6015,2.6071,2.6064,2.6066,2.6139,2.617,2.6137,2.6292,2.6239,2.6249,2.6252,2.6289,2.6307,2.6324,2.6102,2.6101,2.61,0,0,2.6153,2.6153,2.621,2.6211,2.6212,2.6192,2.6206,2.6196,2.6188,2.6243,2.619,2.622,2.6269,2.6271,2.6279,2.6411,2.6369,2.642,2.65,2.654,2.6556,2.6569,2.6613,2.6629,2.643,2.643,2.643,0,2.6233,2.6284,2.6244,2.6288,2.6298,2.6236,2.6292,2.6296,2.6306,2.6314,2.6277,2.6334,2.6332,2.6402,2.6433,2.6443,2.6456,2.642,2.6557,2.657,2.6582,2.6623,2.664,2.6436,2.6435,2.6435,2.6434,0,2.6379,2.6416,2.6462,2.647,2.6486,2.6537,2.6503,2.6524,2.6495,2.6478,2.6532,2.6527,2.6547,2.6562,2.6535,2.6627,2.6606,2.6564,2.6498,2.6608,2.6645,2.6661,2.6445,2.6442,2.6441,2.6439,0,0,2.6577,2.656,2.6578,2.6578,2.6574,2.6601,2.6647,2.6665,2.6682,2.6691,2.6727,2.6768,2.6727,2.6736,2.6708,2.6744,2.6844,2.6696,2.6696,2.6721,2.6941,2.6971,2.699,2.6817,2.682,2.6822,2.694,0,2.6704,2.6781,2.6746,2.6827,2.6857,2.6797,2.6837,2.6838,2.6823,2.6846,2.683,2.6858,2.6804,2.6808,2.6841,2.6825,2.6887,2.6816,2.6848,2.6849,2.6846,2.701,2.7043,2.7154,2.6955,2.6957,2.6959,0,2.6864,2.6876,2.6959,2.6945,2.6956,2.6993,2.7004,2.7028,2.7027,2.7013,2.7022,2.6985,2.7027,2.6963,2.702,2.6973,2.6984,2.6978,2.6981,2.698,2.6909,2.7011,2.7189,2.7205,2.6983,2.6981,2.6979,0,2.6995,2.7032,2.7085,2.7089,2.7075,2.7101,2.7096,2.7091,2.7103,2.7114,2.7121,2.7137,2.7146,2.7159,2.7126,2.7083,2.7186,2.712,2.7174,2.7175,2.7197,2.7195,2.7376,2.7209,2.7209,2.7208,2.7208,0,2.7139,2.7192,2.7143,2.7176,2.7232,2.719,2.7247,2.7235,2.7231,2.7259,2.721,2.7238,2.7194,2.7217,2.7193,2.7241,2.7247,2.7235,2.7227,2.7238,2.7239,2.7243,2.7233,2.7213,2.7212,2.7211,2.721,0,2.7294,2.7265,2.7318,2.7299,2.7295,2.7337,2.732,2.7349,2.733,2.7366,2.7372,2.7342,2.7366,2.7335,2.7358,2.7341,2.7406,2.7389,2.7406,2.74,2.7454,2.7448,2.7641,2.7662,2.7485,2.7487,2.7488,0,2.7387,2.7426,2.7409,2.7424,2.7421,2.7447,2.7458,2.7417,2.7431,2.743,2.7458,2.7478,2.7492,2.7533,2.7513,2.7529,2.7509,2.7576,2.7511,2.7519,2.7506,2.7503,2.7505,2.7588,2.759,2.7592,2.7593,0,2.7554,2.7536,2.7554,2.7565,2.7579,2.7587,2.759,2.7606,2.7563,2.758,2.7603,2.7614,2.7635,2.7654,2.7664,2.7658,2.7618,2.7614,2.7626,2.7636,2.7643,2.7637,2.7438,2.7609,2.7608,2.7607,2.7606,2.7605,2.7678,2.7708,2.77,2.772,2.7718,2.7722,2.7746,2.7729,2.7747,2.776,2.7735,2.7764,2.7758,2.7767,2.7766,2.7787,2.7758,2.7778,2.7782,2.7786,2.7793,2.7642,2.7789,2.7789,2.7788,2.7788,2.7788,0,2.7839,2.783,2.7849,2.7854,2.7869,2.7829,2.7831,2.7846,2.7871,2.7869,2.7882,2.7907,2.7925,2.7906,2.7919,2.794,2.7922,2.7945,2.7941,2.794,2.782,2.7806,2.7959,2.7959,2.7959,2.7959,2.7959,2.7959,2.7924,2.7971,2.7952,2.7996,2.7986,2.8013,2.8016,2.8019,2.8016,2.8046,2.806,2.8046,2.8037,2.8049,2.8062,2.8056,2.8062,2.8091,2.8078,2.7966,2.7949,2.7933,2.7919,2.8094,2.8094,2.8196,2.8197,2.8197]},{"header":{"parameterUnit":"m.s-1","parameterCategory":1,"la1":30.2991,"la2":30.254,"lo1":-89.0895,"lo2":-89.0444,"dy":0.0017,"dx":0.0017,"nx":28,"ny":28,"refTime":"2023-10-12T09:00:00:Z","depth":0,"parameterNumber":3,"parameterNumberName":"V-component_of_WINDS"},"data":[0,0,0,0,0,0,0,0,0,0,0,0,0,0,0,0,0,0,0,0,0,0,0,0,0,0,0,0,0,0,0,0,0,0,0,0,0,0,0,0,0,0,0,0,0,0,0,0,0,0,0,0,0,0,0,0,0,0,1.6532,1.6532,0,1.6523,1.6523,1.6523,1.6474,1.6473,1.6472,1.6471,1.6461,1.6462,1.6463,0,0,0,0,0,0,0,0,0,0,0,0,0,1.6503,1.6503,1.6532,1.6532,1.6532,1.6523,1.6523,1.6523,1.6474,1.6473,1.6471,1.647,1.6461,1.6462,1.6463,0,0,0,0,0,0,0,0,0,0,0,0,0,1.6507,1.6504,1.6532,1.6506,1.6504,1.6523,1.6523,1.6523,1.6475,1.6473,1.6471,1.6469,1.646,1.6462,1.6463,1.6506,0,0,1.6467,1.6467,0,0,0,0,0,0,0,0,1.6507,1.6508,1.651,1.6508,1.6505,1.6498,1.6509,1.6517,1.6475,1.6486,1.6471,1.6468,1.6475,1.6475,1.6477,1.6506,1.6505,1.6467,1.6468,1.6468,1.6469,0,0,0,0,0,0,0,1.6506,1.6508,1.6528,1.651,1.6507,1.6494,1.6493,1.6511,1.649,1.6485,1.6481,1.6481,1.6473,1.6476,1.6476,1.6505,1.6467,1.6468,1.6469,1.6469,1.6564,1.6566,0,0,0,0,0,0,1.651,1.6508,1.6529,1.6528,1.6502,1.6496,1.6495,1.6502,1.649,1.6486,1.6482,1.6478,1.6475,1.6475,1.6476,1.6523,1.6468,1.6469,1.647,1.6563,1.6565,1.6567,0,0,0,0,0,0,1.651,1.6512,1.6529,1.6517,1.6518,1.6498,1.6507,1.6503,1.6506,1.6488,1.6484,1.6489,1.6473,1.6474,1.6498,1.6522,1.647,1.6471,1.6561,1.6563,1.6566,1.6619,0,0,0,0,0,0,1.6509,1.6513,1.653,1.6518,1.6519,1.6553,1.6509,1.6504,1.6508,1.6503,1.6493,1.649,1.6472,1.6496,1.6499,1.6523,1.6472,1.6558,1.6562,1.6565,1.6615,1.6623,1.663,0,0,0,0,0,1.6508,1.6546,1.6531,1.6534,1.654,1.6554,1.6555,1.6533,1.651,1.6526,1.6514,1.649,1.6519,1.6499,1.6502,1.6526,1.6557,1.6561,1.6565,1.6611,1.6621,1.663,0,0,0,0,0,0,1.6562,1.6544,1.6527,1.6562,1.656,1.6546,1.6566,1.6545,1.6549,1.6544,1.6517,1.6515,1.6543,1.6537,1.6515,1.6565,1.6533,1.6538,1.6568,1.6577,1.6585,1.6585,1.6473,0,0,0,0,0,1.6577,1.6591,1.6574,1.6607,1.6606,1.6586,1.6592,1.6575,1.6572,1.657,1.656,1.6557,1.6565,1.6571,1.6578,1.6614,1.6609,1.6631,1.6639,1.6645,1.6649,1.6664,1.6673,1.658,1.658,1.658,0,0,1.661,1.6602,1.6613,1.6617,1.6613,1.6626,1.6586,1.6603,1.6611,1.6573,1.6594,1.6587,1.6581,1.661,1.6623,1.6606,1.6674,1.665,1.6655,1.6656,1.6669,1.6678,1.6686,1.6582,1.6582,1.6582,0,0,1.6676,1.6673,1.6698,1.6694,1.6689,1.6675,1.668,1.6669,1.6662,1.6683,1.6653,1.6663,1.6678,1.6674,1.6675,1.6736,1.6712,1.6738,1.6777,1.6793,1.68,1.6806,1.6825,1.6833,1.6743,1.6743,1.6743,0,1.6718,1.6737,1.6713,1.673,1.6732,1.6697,1.6721,1.6719,1.6716,1.6717,1.6699,1.6714,1.6708,1.6735,1.6749,1.6751,1.6755,1.6739,1.6801,1.6807,1.6812,1.683,1.6838,1.6746,1.6746,1.6745,1.6745,0,1.6787,1.68,1.6821,1.6817,1.6822,1.6842,1.682,1.6827,1.6809,1.6796,1.6816,1.6808,1.681,1.6815,1.6799,1.6838,1.6828,1.6806,1.6773,1.6825,1.6841,1.6848,1.675,1.6749,1.6748,1.6748,0,0,1.6888,1.6869,1.6877,1.6873,1.6863,1.6872,1.689,1.6892,1.6897,1.6896,1.6908,1.692,1.6898,1.6898,1.6881,1.6894,1.6939,1.687,1.6869,1.6881,1.6978,1.6994,1.7002,1.6924,1.6925,1.6926,1.6978,0,1.6949,1.6978,1.6956,1.6989,1.6999,1.6964,1.6979,1.6974,1.6962,1.6968,1.6954,1.6962,1.6935,1.6934,1.6946,1.6932,1.6958,1.6928,1.6933,1.6934,1.6934,1.7011,1.7029,1.7078,1.6985,1.6986,1.6986,0,1.7025,1.7025,1.7059,1.7043,1.7046,1.7061,1.7058,1.7066,1.7057,1.7047,1.7046,1.7024,1.7038,1.7006,1.7024,1.7003,1.7004,1.6997,1.6999,1.6997,1.6962,1.701,1.7093,1.71,1.6997,1.6996,1.6995,0,1.7091,1.71,1.7121,1.7119,1.7102,1.7112,1.7106,1.7096,1.7097,1.7096,1.7096,1.7096,1.7096,1.7095,1.7073,1.7052,1.7092,1.706,1.7082,1.7083,1.7092,1.7091,1.7174,1.7095,1.7095,1.7095,1.7095,0,1.7161,1.7183,1.715,1.7162,1.7184,1.7157,1.7179,1.7169,1.716,1.7168,1.7139,1.7147,1.7118,1.7122,1.7105,1.712,1.7121,1.7111,1.7106,1.7113,1.7114,1.7112,1.7108,1.7097,1.7097,1.7096,1.7096,0,1.7239,1.7219,1.7238,1.722,1.7215,1.7232,1.7216,1.7225,1.721,1.7221,1.7222,1.7199,1.7202,1.7179,1.7179,1.7167,1.719,1.718,1.7193,1.7189,1.7212,1.7209,1.7296,1.7305,1.7222,1.7223,1.7224,0,1.7285,1.73,1.7282,1.7286,1.728,1.7286,1.7287,1.726,1.7262,1.7252,1.7262,1.7263,1.7263,1.7269,1.7252,1.725,1.7238,1.7269,1.7238,1.7243,1.7236,1.7234,1.7234,1.7275,1.7276,1.7277,1.7277,0,1.7366,1.7354,1.7357,1.7355,1.7356,1.7353,1.7349,1.7353,1.7324,1.7327,1.733,1.7329,1.7327,1.7328,1.7322,1.7314,1.729,1.7287,1.7292,1.7298,1.7304,1.7299,1.7208,1.7285,1.7284,1.7284,1.7283,1.7283,1.7427,1.7438,1.7426,1.7429,1.7422,1.7418,1.7425,1.741,1.7412,1.7408,1.7392,1.7397,1.7386,1.7376,1.7369,1.7371,1.7357,1.7364,1.7366,1.7368,1.7371,1.7305,1.7371,1.737,1.737,1.737,1.737,0,1.7505,1.7495,1.7498,1.7491,1.7492,1.747,1.7463,1.7465,1.747,1.7461,1.746,1.7462,1.7461,1.7442,1.7439,1.7444,1.7433,1.7444,1.7442,1.744,1.7386,1.7381,1.7453,1.7453,1.7453,1.7453,1.7453,1.7453,1.7545,1.7561,1.7547,1.7558,1.7548,1.7552,1.755,1.7544,1.7537,1.754,1.7539,1.7527,1.7513,1.7508,1.7505,1.7499,1.7498,1.7513,1.7503,1.7452,1.7444,1.7437,1.7432,1.7513,1.7513,1.7557,1.7557,1.7558]}]]